VK5TRM-13 Weather Reports


time (UTC)temp
C
wind
direction
speed
KPH
gust
KPH
rain 1hr
cm
rain 24hr
cm
rain mn
cm
humidity
%
barometer
mb
20260509043005 16 180 14.5 19.3 0.00 0.00 0.00 67 1028.1
20260509041505 16 180 14.5 19.3 0.00 0.00 0.00 67 1028.1
20260509040005 16 202 11.3 16.1 0.00 0.00 0.00 66 1028.3
20260509034504 16 202 11.3 16.1 0.00 0.00 0.00 66 1028.3
20260509033004 16 202 12.9 22.5 0.00 0.00 0.00 69 1028.7
20260509031504 16 202 12.9 22.5 0.00 0.00 0.00 69 1028.7
20260509030005 16 225 14.5 20.9 0.00 0.00 0.00 71 1029.3
20260509024505 16 225 14.5 20.9 0.00 0.00 0.00 71 1029.3
20260509023004 15 202 12.9 19.3 0.00 0.00 0.00 72 1030.0
20260509021504 15 202 12.9 19.3 0.00 0.00 0.00 72 1030.0
20260509020005 15 180 9.7 14.5 0.00 0.00 0.00 73 1030.2
20260509014505 15 180 9.7 14.5 0.00 0.00 0.00 73 1030.2
20260509013004 15 180 12.9 20.9 0.00 0.00 0.00 80 1030.4
20260509011504 15 180 12.9 20.9 0.00 0.00 0.00 80 1030.4
20260509010004 14 202 9.7 12.9 0.00 0.00 0.00 83 1030.5
20260509004504 14 202 9.7 12.9 0.00 0.00 0.00 83 1030.5
20260509003004 13 180 11.3 14.5 0.00 0.00 0.00 86 1030.6
20260509001504 13 180 11.3 14.5 0.00 0.00 0.00 86 1030.6
20260509000006 13 180 11.3 16.1 0.00 0.00 0.00 88 1030.6
20260508234505 13 180 11.3 16.1 0.00 0.00 0.00 88 1030.6
20260508233005 13 180 12.9 19.3 0.00 0.00 0.00 88 1030.4
20260508231505 13 180 12.9 19.3 0.00 0.00 0.00 88 1030.4
20260508230005 12 202 8.0 9.7 0.00 0.00 0.00 91 1030.1
20260508224505 12 202 8.0 9.7 0.00 0.00 0.00 91 1030.1
20260508223004 12 202 4.8 9.7 0.00 0.00 0.00 92 1029.9
20260508221504 12 202 4.8 9.7 0.00 0.00 0.00 92 1029.9
20260508220004 11 202 8.0 9.7 0.00 0.00 0.00 93 1029.6
20260508214504 11 202 8.0 9.7 0.00 0.00 0.00 93 1029.6
20260508213004 12 225 9.7 12.9 0.00 0.00 0.00 93 1029.3
20260508211505 12 225 9.7 12.9 0.00 0.00 0.00 93 1029.3
20260508210005 12 225 9.7 12.9 0.00 0.00 0.00 94 1029.1
20260508204505 12 225 9.7 12.9 0.00 0.00 0.00 94 1029.1
20260508203004 12 202 8.0 9.7 0.00 0.00 0.00 95 1028.9
20260508201504 12 202 8.0 9.7 0.00 0.00 0.00 95 1028.9
20260508200004 11 225 4.8 9.7 0.00 0.00 0.00 93 1028.9
20260508194504 11 225 4.8 9.7 0.00 0.00 0.00 93 1028.9
20260508193005 12 225 8.0 11.3 0.00 0.00 0.00 93 1028.7
20260508191505 12 225 8.0 11.3 0.00 0.00 0.00 93 1028.7
20260508190005 12 202 4.8 8.0 0.00 0.00 0.00 93 1028.8
20260508184505 12 202 4.8 8.0 0.00 0.00 0.00 93 1028.8
20260508183006 12 0 0.0 0.0 0.00 0.00 0.00 92 1028.8
20260508181504 12 0 0.0 0.0 0.00 0.00 0.00 92 1028.8
20260508180004 12 180 1.6 8.0 0.00 0.00 0.00 92 1028.8
20260508174504 12 180 1.6 8.0 0.00 0.00 0.00 92 1028.8
20260508173004 11 180 4.8 9.7 0.00 0.00 0.00 93 1028.9
20260508171504 11 180 4.8 9.7 0.00 0.00 0.00 93 1028.9
20260508170004 11 157 8.0 11.3 0.00 0.00 0.00 93 1029.0
20260508164505 11 157 8.0 11.3 0.00 0.00 0.00 93 1029.0
20260508163004 11 202 11.3 20.9 0.00 0.00 0.00 93 1029.2
20260508161504 11 202 11.3 20.9 0.00 0.00 0.00 93 1029.2
20260508160004 11 225 9.7 11.3 0.00 0.00 0.00 93 1029.0
20260508154504 11 225 9.7 11.3 0.00 0.00 0.00 93 1029.0
20260508153005 11 225 8.0 9.7 0.00 0.00 0.00 90 1029.2
20260508151505 11 225 8.0 9.7 0.00 0.00 0.00 90 1029.2
20260508150005 12 225 9.7 12.9 0.00 0.00 0.00 88 1029.1
20260508144505 12 225 9.7 12.9 0.00 0.00 0.00 88 1029.1
20260508143004 12 225 12.9 16.1 0.00 0.00 0.00 84 1029.1
20260508141504 12 225 12.9 16.1 0.00 0.00 0.00 84 1029.1
20260508140004 13 225 12.9 19.3 0.00 0.00 0.00 81 1029.2
20260508134505 13 225 12.9 19.3 0.00 0.00 0.00 81 1029.2
20260508133005 13 225 12.9 16.1 0.00 0.00 0.00 81 1029.5
20260508131505 13 225 12.9 16.1 0.00 0.00 0.00 81 1029.5
20260508130005 13 225 16.1 22.5 0.00 0.00 0.00 77 1029.5
20260508124504 13 225 16.1 22.5 0.00 0.00 0.00 77 1029.5
20260508123004 13 202 11.3 19.3 0.00 0.00 0.00 75 1029.5
20260508121504 13 202 11.3 19.3 0.00 0.00 0.00 75 1029.5
20260508120004 14 202 12.9 16.1 0.00 0.00 0.00 73 1029.3
20260508114504 14 202 12.9 16.1 0.00 0.00 0.00 73 1029.3
20260508113005 15 202 16.1 25.7 0.00 0.00 0.00 68 1029.3
20260508111505 15 202 16.1 25.7 0.00 0.00 0.00 68 1029.3
20260508110005 15 202 19.3 27.4 0.00 0.00 0.00 65 1029.3
20260508104504 15 202 19.3 27.4 0.00 0.00 0.00 65 1029.3
20260508103004 15 202 19.3 27.4 0.00 0.00 0.00 67 1029.1
20260508101504 15 202 19.3 27.4 0.00 0.00 0.00 67 1029.1
20260508100005 15 202 12.9 20.9 0.00 0.00 0.00 64 1028.8
20260508094505 15 202 12.9 20.9 0.00 0.00 0.00 64 1028.8
20260508093005 16 202 16.1 25.7 0.00 0.00 0.00 62 1028.6
20260508091505 16 202 16.1 25.7 0.00 0.00 0.00 62 1028.6
20260508090005 16 202 20.9 27.4 0.00 0.00 0.00 61 1028.2
20260508084504 16 202 20.9 27.4 0.00 0.00 0.00 61 1028.2
20260508083005 16 202 19.3 27.4 0.00 0.00 0.00 65 1028.0
20260508081504 16 202 19.3 27.4 0.00 0.00 0.00 65 1028.0
20260508080004 17 225 25.7 35.4 0.00 0.00 0.00 65 1027.8
20260508074504 17 225 25.7 35.4 0.00 0.00 0.00 65 1027.8
20260508073004 17 202 24.1 35.4 0.00 0.00 0.00 64 1027.6
20260508071505 17 202 24.1 35.4 0.00 0.00 0.00 64 1027.6
20260508070005 18 202 22.5 32.2 0.00 0.00 0.00 60 1027.4
20260508064504 18 202 22.5 32.2 0.00 0.00 0.00 60 1027.4
20260508063005 18 225 24.1 35.4 0.00 0.00 0.00 55 1027.3
20260508061504 18 225 24.1 35.4 0.00 0.00 0.00 55 1027.3
20260508060005 18 202 20.9 27.4 0.00 0.00 0.00 58 1027.4
20260508054504 18 202 20.9 27.4 0.00 0.00 0.00 58 1027.4
20260508053004 18 225 20.9 33.8 0.00 0.00 0.00 61 1027.4
20260508051504 18 225 20.9 33.8 0.00 0.00 0.00 61 1027.4
20260508050004 18 225 25.7 38.6 0.00 0.00 0.00 63 1027.6
20260508044505 18 225 25.7 38.6 0.00 0.00 0.00 63 1027.6